Terminal Aerodrome Forecast
Issued by NWS Twin Cities, MN

Home | Current Version | Previous Version | Graphics & Text | Print | Product List | Glossary On
Versions: 1 2 3 4 5 6 7 8 9 10 11 12 13 14 15 16 17 18 19 20 21 22 23 24 25 26 27 28 29 30 31 32 33 34
677
FTUS43 KMPX 210855 AAB
TAFMSP
TAF AMD
KMSP 210855Z 2109/2212 34020G35KT 6SM -TSRA SCT025 OVC040CB
      TEMPO 2109/2110 34025G40KT 2SM +TSRA BKN025CB
     FM211030 18007KT P6SM SCT025 OVC080
     FM211700 20007KT P6SM SCT250
     FM212300 23007KT P6SM BKN250
     FM220300 30005KT P6SM BKN250=

USA.gov is the U.S. government's official web portal to all federal, state and local government web resources and services.